Location: Rumah Long Bangan
(2.8362°N, 113.7519°E)
Time: 05:51:34
(UTC+00:00)

Cosmos 2263 Rocket - Pass Details

Date: 24 October 2021
Orbit: 825 x 847 km, 71.0° (Epoch: 28 November)

Event Time Altitude Azimuth Distance (km) Brightness Sun altitude
Rises 11:57:55 0° 324° (NW) 3,351 5.6 -27.2°
Reaches altitude 10° 12:00:38 10° 313° (NW) 2,422 5.0 -27.8°
Maximum altitude 12:05:19 28° 255° (WSW) 1,499 4.1 -29.0°
Drops below altitude 10° 12:10:03 10° 197° (SSW) 2,439 4.9 -30.1°
Sets 12:12:50 0° 185° (S) 3,378 5.5 -30.8°
